www.pogodaiklimat.ru

Погода и климат >> Архив погоды >> Индонезия >> Баликпапан


ПОГОДА в Баликпапане

  • Прогноз погоды в Баликпапане
  • Монитор погоды в Баликпапане

АРХИВ ПОГОДЫ в Баликпапане

Время (UTC), дата Ветер
(напр.,м/с)
 
Видим.   Явления Облачность Т
(С)
Тd
(С)
f
(%)
Тe
(С)
Тes
(С)
Комфортность P
(гПа)
Po
(гПа)
Тmin
(С)
Tmax
(С)
R
(мм)
R24
(мм)
S
(см)
00 10.09 ЮЗ 3 3500 м дым {морось} 9/5 540 м
[Cu med, cong Ac As Ci fib]
+25.9 +23.3 86 +35 +36 очень
душно
1013.1 1012.5 +25.4
03 10.09 ЮЗ 4 9000 м {туман} 9/5 600 м
[Cu med, cong Ac As Ci fib]
+28.5 +23.5 74 +39 +43 очень
душно
1013.7 1013.1
06 10.09 ЮЗ 4 10 км {туман} 4/1 600 м
[Sc As trans Ci fib]
+30.5 +24.0 68 +42 +52 опасность
перегрева
1010.8 1010.2
09 10.09 Ю 3 10 км 5/3 600 м
[Cu med, cong As trans Ci fib]
+29.6 +24.7 75 +42 +43 опасность
перегрева
1010.4 1009.8
12 10.09 Ю 4 9000 м 6/1 600 м
[Sc As trans Ci fib]
+27.8 +22.9 75 +37 +37 очень
душно
1011.9 1011.3 +30.7
15 10.09 Ю 4 9000 м 8/4 600 м
[Cu med, cong Ac As Ci fib]
+27.8 +22.8 74 +37 +37 очень
душно
1014.3 1013.7
18 10.09 Ю 2 9000 м 8/4 600 м
[Cu med, cong Ac As Ci fib]
+27.6 +22.3 73 +36 +36 очень
душно
1013.2 1012.6
21 10.09 ЮЗ 2 5000 м 8/4 600 м
[Cu med, cong Ac As Ci fib]
+27.3 +22.3 74 +36 +36 очень
душно
1012.7 1012.2
00 11.09 ЮЗ 6 5000 м 9/4 540 м
[Cu med, cong Ac As Ci fib]
+26.5 +22.9 81 +35 +36 очень
душно
1014.2 1013.6 +24.0
03 11.09 ЮЗ 4 7000 м 9/4 540 м
[Cu med, cong Ac As Ci fib]
+29.3 +23.2 70 +40 +44 очень
душно
1013.9 1013.3
06 11.09 ЮЗ 3 10 км 6/3 600 м
[Sc Ac As Ci fib]
+30.3 +23.2 66 +41 +49 опасность
перегрева
1011.5 1010.9
09 11.09 Ю 3 10 км 4/1 600 м
[Sc As trans Ci fib]
+28.7 +23.6 74 +39 +41 очень
душно
1009.8 1009.3
12 11.09 Ю 3 9000 м 9/5 540 м
[Cu med, cong Ac As Ci fib]
+26.9 +23.0 79 +36 +36 очень
душно
1011.7 1011.2 +31.0
15 11.09 Ю 5 9000 м 9/5 540 м
[Cu med, cong Ac As Ci fib]
+27.4 +23.0 77 +37 +37 очень
душно
1013.2 1012.6
18 11.09 Ю 4 9000 м 8/5 540 м
[Cu med, cong Ac As Ci fib]
+27.2 +22.9 77 +36 +36 очень
душно
1012.4 1011.8
21 11.09 Ю 5 9000 м 8/5 540 м
[Cu med, cong Ac As Ci fib]
+27.2 +22.0 73 +35 +35 очень
душно
1012.7 1012.1
00 12.09 ЮЗ 5 10 км 8/4 600 м
[Cu med, cong As trans Ci fib]
+26.8 +24.1 85 +37 +38 очень
душно
1014.1 1013.5 +26.3
03 12.09 ЮЗ 4 10 км 8/5 600 м
[Cu med, cong As trans Ci fib]
+29.3 +23.5 71 +40 +44 очень
душно
1013.7 1013.2
06 12.09 ЮЗ 4 10 км 8/5 600 м
[Cu med, cong As trans Ci fib]
+30.6 +23.5 66 +41 +46 опасность
перегрева
1011.3 1010.8
09 12.09 ЮЗ 2 10 км 8/4 600 м
[Cu med, cong Ac As Ci fib]
+28.4 +21.8 67 +36 +37 очень
душно
1010.2 1009.6
12 12.09 ЮЗ 3 9000 м 9/4 540 м
[Cu med, cong Ac As Ci fib]
+27.0 +22.5 76 +35 +35 очень
душно
1011.4 1010.8 +30.8
15 12.09 Ю 4 9000 м 9/4 600 м
[Cu med, cong Ac As Ci fib]
+27.1 +22.0 74 +35 +35 очень
душно
1012.7 1012.1
18 12.09 Ю 6 9000 м 9/4 600 м
[Cu med, cong Ac As Ci fib]
+27.2 +22.3 75 +36 +36 очень
душно
1011.3 1010.7
21 12.09 ЮЗ 6 9000 м 9/3 540 м
[Cu med, cong Ac As Ci fib]
+26.7 +23.0 80 +36 +36 очень
душно
1011.3 1010.7
00 13.09 Ю 6 8000 м 10/5 540 м
[Cu med, cong Ac As Ci fib]
+27.4 +23.5 79 +37 +38 очень
душно
1013.0 1012.4 +26.3
03 13.09 ЮЗ 5 7000 м 9/5 540 м
[Cu med, cong Ac As Ci fib]
+28.3 +23.2 74 +38 +41 очень
душно
1013.2 1012.7
06 13.09 Ю 6 9000 м 8/3 600 м
[Cu hum Ac As Ci fib]
+29.6 +21.8 63 +38 +41 очень
душно
1010.7 1010.1
09 13.09 ЮЗ 3 9000 м 5/1 600 м
[Sc As trans Ci fib]
+28.7 +21.5 65 +37 +38 очень
душно
1010.2 1009.6
12 13.09 ЮЗ 3 9000 м 8/3 600 м
[Sc As trans Ci fib]
+27.2 +21.9 73 +35 +35 очень
душно
1011.6 1011.1 +29.8
15 13.09 ЮЗ 3 9000 м 9/4 600 м
[Sc As trans Ci fib]
+27.0 +22.5 76 +35 +35 очень
душно
1012.2 1011.6
18 13.09 ЮЗ 2 10 км 9/4 500 м
[Cu med, cong Ac As Ci fib]
+26.4 +23.1 82 +35 +35 очень
душно
1011.0 1010.4
21 13.09 З 2 3000 м дым 9/4 500 м
[Cu med, cong Ac As Ci fib]
+24.0 +22.1 89 +31 +31 очень
душно
1011.6 1011.0
00 14.09 З 3 4000 м дым 9/3 600 м
[Cu med, cong Ac As Ci fib]
+25.9 +23.0 84 +35 +36 очень
душно
1013.3 1012.7 +23.7
03 14.09 ЮЗ 4 5000 м дым 9/4 500 м
[Cu med, cong Ac As Ci fib]
+28.3 +23.3 74 +38 +43 очень
душно
1012.9 1012.3
06 14.09 ЮЗ 4 10 км 9/4 540 м
[Cu med, cong Ac As Ci fib]
+28.8 +23.2 72 +39 +43 очень
душно
1010.6 1010.0
09 14.09 Ю 3 10 км 9/3 600 м
[Cu hum Ac As Ci fib]
+28.9 +23.3 72 +39 +40 очень
душно
1009.7 1009.1
12 14.09 Ю 2 9000 м 9/3 600 м
[Cu med, cong Ac As Ci fib]
+27.6 +23.8 80 +38 +38 очень
душно
1011.1 1010.5 +29.9
15 14.09 ЮЗ 3 9000 м 9/4 600 м
[Cu med, cong Ac As Ci fib]
+27.0 +23.0 79 +36 +36 очень
душно
1012.5 1011.9
18 14.09 З 3 9000 м 9/5 600 м
[Cu med, cong Ac As Ci fib]
+25.0 +22.8 88 +33 +33 очень
душно
1011.0 1010.4
21 14.09 З 3 4500 м дым 9/4 600 м
[Cu med, cong Ac As Ci fib]
+24.0 +22.6 92 +31 +31 очень
душно
1011.2 1010.6
00 15.09 З 2 3000 м дым {туман} 9/4 540 м
[Cu med, cong Ac As Ci fib]
+26.0 +23.7 87 +35 +37 очень
душно
1012.1 1011.5 +23.3
03 15.09 ЮЗ 4 5000 м дым {туман} 8/3 540 м
[Cu med, cong Ac As Ci fib]
+29.5 +23.8 71 +40 +47 очень
душно
1011.4 1010.9
06 15.09 Ю 4 7000 м мгла {туман} 6/3 480 м
[Sc As trans Ci fib]
+30.0 +23.6 69 +41 +47 опасность
перегрева
1008.8 1008.2
09 15.09 Ю 4 8000 м 6/1 540 м
[Sc As trans Ci fib]
+28.9 +23.0 71 +39 +40 очень
душно
1008.2 1007.7
12 15.09 Ю 3 9000 м 8/3 500 м
[Sc As trans Ci fib]
+27.7 +24.5 83 +39 +39 очень
душно
1010.0 1009.4 +30.2
15 15.09 ЮЗ 3 9000 м 8/3 500 м
[Sc As op Ci fib]
+26.6 +24.0 86 +37 +37 очень
душно
1011.1 1010.5
18 15.09 ЮЗ 2 9000 м 8/4 600 м
[Cu med, cong As op Ci fib]
+26.9 +24.7 88 +38 +38 очень
душно
1010.5 1009.9
21 15.09 З 1 4000 м дымка 8/4 540 м
[Cu med, cong As op Ci fib]
+25.3 +24.1 93 +35 +35 очень
душно
1010.6 1010.0
00 16.09 ЮЗ 3 4000 м мгла 9/4 540 м
[Cu med, cong Ac As Ci fib]
+26.7 +23.9 85 +37 +38 очень
душно
1011.9 1011.3 +24.0
03 16.09 ЮЗ 5 5000 м 9/4 600 м
[Cu med, cong Ac As Ci fib]
+30.1 +24.2 71 +42 +46 опасность
перегрева
1011.3 1010.7
06 16.09 ЮЗ 3 7000 м 8/3 600 м
[Sc Ac As Ci fib]
+30.4 +24.2 70 +42 +50 опасность
перегрева
1008.8 1008.2
09 16.09 Ю 2 9000 м 5/1 600 м
[Sc As trans Ci fib]
+29.0 +23.8 74 +40 +42 очень
душно
1007.7 1007.1
12 16.09 ЮВ 1 8000 м 8/3 600 м
[Cu med, cong Ac As Ci fib]
+26.9 +23.6 82 +37 +37 очень
душно
1009.3 1008.7 +31.1
15 16.09 Ю 2 9000 м 8/1 600 м
[Sc As trans Ci fib]
+27.7 +25.2 86 +40 +40 очень
душно
1010.6 1010.0
18 16.09 ЮЗ 1 9000 м 8/4 540 м
[Cu med, cong Ac As Ci fib]
+27.1 +24.7 87 +39 +39 очень
душно
1010.1 1009.5
21 16.09 З 2 4000 м дымка 8/4 540 м
[Cu med, cong Ac As Ci fib]
+25.7 +24.9 95 +36 +36 очень
душно
1010.2 1009.7

 

Местоположение метеостанции Баликпапан (Индонезия): широта -1.27 долгота 116.90 высота над уровнем моря 3 м.

В архиве по умолчанию представлена погода в Баликпапане за последнюю неделю. Архивные данные за месяц целиком и за предыдущие месяцы, начиная с января 2011 года, Вы можете получить, выбрав интересующий диапазон дат из раскрывающегося списка и нажав кнопку "Ввод!".


*Определитесь, кто Вы:
робот инопланетянин человек

Внимание! Время в таблицах - всемирное. Для получения местного времени необходимо прибавить поправку, которая равна 8 ч.

Смотрите также архив погоды в соседних городах и на ближайших метеорологических станциях:

Погода в Самаринде (Индонезия) (77 км)
Погода в Муаратевехе (Индонезия) (225 км)
Погода в Котабару (Индонезия) (249 км)
Погода в Маджене (Индонезия) (271 км)
Погода в Палу (Индонезия) (321 км)
Погода в Паоанкарая (Индонезия) (324 км)
Погода в Банджармасине (Индонезия) (339 км)
Погода в Танджунгредепе (Индонезия) (382 км)
Погода в Масамбе (Индонезия) (410 км)
Погода в Посо (Индонезия) (426 км)

Пояснения к столбцам:

Ветер - указаны скорость ветра в м/с - средняя за 10 мин, порывы в срок и между сроками (в фигурных скобках) и направление, откуда дует ветер: С - северный, СВ - северо-восточный, В - восточный, ЮВ - юго-восточный, Ю - южный, ЮЗ - юго-западный, З - западный, СЗ - северо-западный.
Видимость - горизонтальная дальность видимости в метрах или километрах. При видимости от 1 до 10 км при отсутствии осадков обычно наблюдается дымка, при ухудшении видимости до 1 км и менее - туман. В сухую погоду видимость может ухудшаться дымом, пылью или мглою.
Явления - указаны атмосферные явления, наблюдавшиеся в срок или в последний час перед сроком; фигурными скобками обозначены явления, наблюдавшиеся между сроками (за 1-3 часа до срока); квадратными скобками обозначены град или гололедные отложения с указанием их диаметра в мм.
Облачность - указаны через наклонную черту общая и нижняя облачность в баллах и высота нижней границы облаков в метрах; квадратными скобками обозначены формы облаков: Ci - перистые, Cs - перисто-слоистые, Cc - перисто-кучевые, Ac - высококучевые, As - высокослоистые, Sc - слоисто-кучевые, Ns - слоисто-дождевые, Cu - кучевые, Cb - кучево-дождевые. Подробнее классификацию облаков см. в Атласе облаков (PDF).
T - Температура воздуха - температура, измеренная на высоте 2 м над землей.
Td - Температура точки росы - температура, при понижении до которой содержащийся в воздухе водяной пар достигнет насыщения.
f - Относительная влажность воздуха - влажноcть воздуха, измеренная на высоте 2 м над землей.
Te - Эффективная температура - температура, которую ощущает одетый по сезону человек в тени. Характеристика душности погоды. При расчете учитывается влияние влажности воздуха и скорости ветра на теплоощущения человека.
Tes - Эффективная температура на солнце - температура, которую ощущает человек, с поправкой на солнечный нагрев. Характеристика знойности погоды. Зависит от высоты солнца над горизонтом, облачности и скорости ветра. Ночью, в пасмурную погоду, а также при ветре 12 м/с и более поправка равна нулю.
P - Атмосферное давление - приведенное к уровню моря атмосферное давление.
Po - Атмосферное давление - измеренное на уровне метеостанции атмосферное давление.
Tmin - Минимальная температура - минимум температуры воздуха на высоте 2 м над землей.
Tmax - Максимальная температура - максимум температуры воздуха на высоте 2 м над землей.
R - Количество осадков - Количество выпавших осадков за период времени, мм. При наведении курсора мыши на число - период времени, за который выпало указанное количество осадков.
R24 - Количество осадков - Количество выпавших осадков за 24 часа, мм.
S - Снежный покров - Высота снежного покрова, см. При наведении курсора мыши на число - состояние снежного покрова и степень покрытия местности в баллах.